GW0309 Weather Reports


Display with metric or nautical units.
time (UTC)temp
F
wind
direction
speed
MPH
gust
MPH
rain 1hr
in
rain 24hr
in
rain mn
in
humidity
%
barometer
mb
20260503002133 0 276 1.0 5.0 0.00 0.00 0.00 1066.2
20260503001629 0 181 1.0 3.0 0.00 0.00 0.00 1066.1
20260503001126 0 103 2.0 5.0 0.00 0.00 0.00 1066.0
20260503000623 0 46 2.0 2.0 0.00 0.00 0.00 1066.0
20260503000120 0 341 5.0 6.0 0.00 0.00 0.00 1066.0
20260502235617 0 122 1.0 3.0 0.00 0.00 0.00 1065.7
20260502235115 0 82 1.0 3.0 0.00 0.00 0.00 1065.7
20260502234616 0 133 2.0 3.0 0.00 0.00 0.00 1066.0
20260502234114 0 238 3.0 6.0 0.00 0.00 0.00 1066.0
20260502233609 0 80 2.0 2.0 0.00 0.00 0.00 1066.0
20260502233106 0 62 3.0 3.0 0.00 0.00 0.00 1066.0
20260502232602 0 123 1.0 5.0 0.00 0.00 0.00 1065.8
20260502232100 0 336 3.0 8.0 0.00 0.00 0.00 1066.3
20260502231557 0 282 3.0 5.0 0.00 0.00 0.00 1066.1
20260502231055 0 307 3.0 3.0 0.00 0.00 0.00 1066.1
20260502230553 0 109 1.0 3.0 0.00 0.00 0.00 1066.1
20260502230051 0 119 1.0 2.0 0.00 0.00 0.00 1066.3
20260502225546 0 332 3.0 5.0 0.00 0.00 0.00 1066.4
20260502225043 0 165 3.0 5.0 0.00 0.00 0.00 1066.1
20260502224539 0 139 1.0 3.0 0.00 0.00 0.00 1066.0
20260502224036 0 271 3.0 3.0 0.00 0.00 0.00 1066.0
20260502223534 0 337 5.0 7.0 0.00 0.00 0.00 1066.2
20260502223032 0 52 1.0 3.0 0.00 0.00 0.00 1066.1
20260502222529 0 57 3.0 6.0 0.00 0.00 0.00 1066.2
20260502222025 0 125 1.0 5.0 0.00 0.00 0.00 1066.2
20260502221521 0 2 4.0 5.0 0.00 0.00 0.00 1066.1
20260502221019 0 79 2.0 7.0 0.00 0.00 0.00 1066.2
20260502220514 0 9 3.0 7.0 0.00 0.00 0.00 1066.3
20260502220011 0 20 5.0 8.0 0.00 0.00 0.00 1066.1
20260502215509 0 37 3.0 7.0 0.00 0.00 0.00 1066.3
20260502215005 0 73 2.0 5.0 0.00 0.00 0.00 1066.2
20260502214502 0 308 4.0 5.0 0.00 0.00 0.00 1066.2
20260502213959 0 241 2.0 2.0 0.00 0.00 0.00 1066.1
20260502213456 0 113 4.0 8.0 0.00 0.00 0.00 1066.2
20260502212954 0 15 2.0 7.0 0.00 0.00 0.00 1065.8
20260502212453 0 118 0.0 2.0 0.00 0.00 0.00 1066.2
20260502211949 0 70 1.0 5.0 0.00 0.00 0.00 1066.1
20260502211445 0 22 6.0 10.0 0.00 0.00 0.00 1066.5
20260502210943 0 116 3.0 7.0 0.00 0.00 0.00 1066.3
20260502210439 0 95 1.0 2.0 0.00 0.00 0.00 1066.3
20260502205937 0 329 5.0 8.0 0.00 0.00 0.00 1066.4
20260502205433 0 121 1.0 3.0 0.00 0.00 0.00 1066.5
20260502204930 0 41 2.0 3.0 0.00 0.00 0.00 1066.5
20260502204427 0 85 1.0 8.0 0.00 0.00 0.00 1066.3
20260502203925 0 47 4.0 7.0 0.00 0.00 0.00 1066.3
20260502203422 0 149 1.0 3.0 0.00 0.00 0.00 1066.4
20260502202918 0 344 9.0 10.0 0.00 0.00 0.00 1066.6
20260502202415 0 40 4.0 5.0 0.00 0.00 0.00 1066.7
20260502201913 0 304 4.0 5.0 0.00 0.00 0.00 1066.5
20260502201409 0 322 5.0 8.0 0.00 0.00 0.00 1066.9
20260502200906 0 61 3.0 6.0 0.00 0.00 0.00 1066.8
20260502200401 0 92 2.0 5.0 0.00 0.00 0.00 1066.8
20260502195859 0 47 1.0 5.0 0.00 0.00 0.00 1066.8
20260502195356 0 259 4.0 7.0 0.00 0.00 0.00 1067.0
20260502194852 0 89 4.0 10.0 0.00 0.00 0.00 1067.1
20260502194349 0 325 3.0 6.0 0.00 0.00 0.00 1067.0
20260502193845 0 289 3.0 5.0 0.00 0.00 0.00 1066.9
20260502193343 0 70 4.0 6.0 0.00 0.00 0.00 1066.8
20260502192838 0 62 4.0 5.0 0.00 0.00 0.00 1066.9
20260502192335 0 277 0.0 3.0 0.00 0.00 0.00 1066.8
20260502191832 0 67 1.0 5.0 0.00 0.00 0.00 1067.1
20260502191331 0 22 3.0 8.0 0.00 0.00 0.00 1067.1
20260502190827 0 221 3.0 7.0 0.00 0.00 0.00 1067.0
20260502190325 0 62 3.0 5.0 0.00 0.00 0.00 1067.0
20260502185820 0 54 4.0 6.0 0.00 0.00 0.00 1067.2
20260502185316 0 243 3.0 5.0 0.00 0.00 0.00 1066.9
20260502184813 0 31 3.0 5.0 0.00 0.00 0.00 1067.0
20260502184309 0 100 3.0 7.0 0.00 0.00 0.00 1067.3
20260502183806 0 345 4.0 6.0 0.00 0.00 0.00 1067.1
20260502183302 0 314 2.0 6.0 0.00 0.00 0.00 1067.1
20260502182757 0 77 2.0 5.0 0.00 0.00 0.00 1067.2
20260502182253 0 326 4.0 7.0 0.00 0.00 0.00 1067.2
20260502181749 0 246 2.0 6.0 0.00 0.00 0.00 1067.2
20260502181243 0 98 2.0 2.0 0.00 0.00 0.00 1067.4
20260502180740 0 294 3.0 8.0 0.00 0.00 0.00 1067.5
20260502180237 0 15 3.0 5.0 0.00 0.00 0.00 1067.5
20260502170155 0 121 1.0 6.0 0.00 0.00 0.00 1067.5
20260502164143 0 19 3.0 5.0 0.00 0.00 0.00 1067.6
20260502163638 0 88 0.0 5.0 0.00 0.00 0.00 1067.7
20260502163135 0 306 5.0 7.0 0.00 0.00 0.00 1067.8
20260502162632 0 74 4.0 6.0 0.00 0.00 0.00 1067.7
20260502162128 0 86 1.0 5.0 0.00 0.00 0.00 1067.5
20260502161626 0 320 3.0 7.0 0.00 0.00 0.00 1067.7
20260502161123 0 85 3.0 5.0 0.00 0.00 0.00 1067.6
20260502160621 0 41 5.0 7.0 0.00 0.00 0.00 1067.7
20260502160119 0 356 4.0 7.0 0.00 0.00 0.00 1067.7
20260502152033 0 6 2.0 3.0 0.00 0.00 0.00 1067.4
20260502151530 0 8 3.0 8.0 0.00 0.00 0.00 1067.5
20260502151027 0 61 3.0 5.0 0.00 0.00 0.00 1067.5
20260502150525 0 19 4.0 6.0 0.00 0.00 0.00 1067.2
20260502130410 0 318 3.0 5.0 0.00 0.00 0.00 1066.6
20260502123352 0 94 2.0 3.0 0.00 0.00 0.00 1066.4
20260502122850 0 105 1.0 2.0 0.00 0.00 0.00 1066.3
20260502122345 0 101 1.0 2.0 0.00 0.00 0.00 1066.4
20260502121844 0 83 2.0 2.0 0.00 0.00 0.00 1066.0
20260502121341 0 99 1.0 1.0 0.00 0.00 0.00 1066.3
20260502120838 0 220 2.0 2.0 0.00 0.00 0.00 1066.1
20260502120334 0 91 1.0 1.0 0.00 0.00 0.00 1065.8
20260502115832 0 151 1.0 1.0 0.00 0.00 0.00 1066.0
20260502115329 0 142 1.0 2.0 0.00 0.00 0.00 1065.7
20260502114825 0 239 2.0 2.0 0.00 0.00 0.00 1065.5
20260502114322 0 126 1.0 1.0 0.00 0.00 0.00 1065.6
20260502113819 0 201 2.0 2.0 0.00 0.00 0.00 1065.6
20260502113317 0 143 1.0 1.0 0.00 0.00 0.00 1065.5
20260502112815 0 145 1.0 1.0 0.00 0.00 0.00 1065.7
20260502112312 0 139 0.0 1.0 0.00 0.00 0.00 1065.4
20260502111809 0 131 0.0 0.0 0.00 0.00 0.00 1065.4
20260502111307 0 154 1.0 1.0 0.00 0.00 0.00 1065.4
20260502110804 0 141 0.0 1.0 0.00 0.00 0.00 1065.5
20260502110302 0 139 0.0 1.0 0.00 0.00 0.00 1065.5
20260502105759 0 149 1.0 1.0 0.00 0.00 0.00 1065.6
20260502105255 0 153 1.0 1.0 0.00 0.00 0.00 1065.2
20260502104754 0 174 2.0 2.0 0.00 0.00 0.00 1065.3
20260502104251 0 160 1.0 1.0 0.00 0.00 0.00 1065.4
20260502103748 0 173 2.0 2.0 0.00 0.00 0.00 1065.2
20260502103245 0 160 1.0 2.0 0.00 0.00 0.00 1065.1
20260502102742 0 145 1.0 2.0 0.00 0.00 0.00 1065.1
20260502102239 0 176 2.0 2.0 0.00 0.00 0.00 1064.9
20260502101737 0 172 1.0 2.0 0.00 0.00 0.00 1064.9
20260502101235 0 169 1.0 2.0 0.00 0.00 0.00 1064.8
20260502100733 0 152 1.0 1.0 0.00 0.00 0.00 1064.9
20260502100231 0 136 0.0 1.0 0.00 0.00 0.00 1064.9
20260502091205 0 137 0.0 1.0 0.00 0.00 0.00 1064.4
20260502090703 0 133 0.0 1.0 0.00 0.00 0.00 1064.5
20260502090159 0 128 0.0 0.0 0.00 0.00 0.00 1064.6
20260502071050 0 145 1.0 1.0 0.00 0.00 0.00 1064.8
20260502070548 0 166 1.0 2.0 0.00 0.00 0.00 1064.7
20260502070045 0 134 0.0 0.0 0.00 0.00 0.00 1064.8
20260502065544 0 131 0.0 0.0 0.00 0.00 0.00 1064.7
20260502065041 0 134 0.0 0.0 0.00 0.00 0.00 1064.7
20260502064539 0 131 0.0 0.0 0.00 0.00 0.00 1064.7
20260502064036 0 132 0.0 0.0 0.00 0.00 0.00 1064.8
20260502063533 0 131 0.0 0.0 0.00 0.00 0.00 1064.8
20260502063031 0 136 0.0 1.0 0.00 0.00 0.00 1064.9
20260502062528 0 129 0.0 0.0 0.00 0.00 0.00 1065.1
20260502062027 0 134 0.0 0.0 0.00 0.00 0.00 1065.0
20260502061524 0 134 0.0 1.0 0.00 0.00 0.00 1064.9
20260502061021 0 134 0.0 1.0 0.00 0.00 0.00 1065.1
20260502060516 0 136 0.0 1.0 0.00 0.00 0.00 1065.0
20260502060013 0 128 0.0 0.0 0.00 0.00 0.00 1064.9
20260502055510 0 133 0.0 1.0 0.00 0.00 0.00 1064.8
20260502055009 0 148 1.0 1.0 0.00 0.00 0.00 1064.9
20260502054508 0 157 1.0 2.0 0.00 0.00 0.00 1065.0
20260502054004 0 150 1.0 1.0 0.00 0.00 0.00 1065.0
20260502053501 0 133 0.0 1.0 0.00 0.00 0.00 1064.9
20260502052959 0 140 0.0 1.0 0.00 0.00 0.00 1065.0
20260502052457 0 135 0.0 1.0 0.00 0.00 0.00 1064.8
20260502051955 0 91 1.0 1.0 0.00 0.00 0.00 1065.0
20260502051453 0 135 0.0 0.0 0.00 0.00 0.00 1064.5
20260502050950 0 136 0.0 1.0 0.00 0.00 0.00 1064.6
20260502050446 0 136 0.0 0.0 0.00 0.00 0.00 1064.6
20260502045944 0 132 0.0 0.0 0.00 0.00 0.00 1064.7
20260502045440 0 127 0.0 0.0 0.00 0.00 0.00 1064.7
20260502044937 0 129 0.0 0.0 0.00 0.00 0.00 1064.6
20260502044433 0 129 0.0 0.0 0.00 0.00 0.00 1064.7
20260502043930 0 129 0.0 0.0 0.00 0.00 0.00 1064.6
20260502043428 0 123 0.0 0.0 0.00 0.00 0.00 1064.8
20260502042927 0 127 0.0 0.0 0.00 0.00 0.00 1064.5
20260502042425 0 129 0.0 0.0 0.00 0.00 0.00 1064.8
20260502041921 0 128 0.0 0.0 0.00 0.00 0.00 1064.6
20260502041420 0 128 0.0 0.0 0.00 0.00 0.00 1065.0
20260502040916 0 128 0.0 0.0 0.00 0.00 0.00 1064.8
20260502040413 0 127 0.0 0.0 0.00 0.00 0.00 1065.1
20260502035909 0 129 0.0 0.0 0.00 0.00 0.00 1065.0
20260502035406 0 129 0.0 0.0 0.00 0.00 0.00 1065.0
20260502034903 0 130 0.0 0.0 0.00 0.00 0.00 1065.0
20260502034402 0 126 0.0 0.0 0.00 0.00 0.00 1065.2
20260502033900 0 128 0.0 0.0 0.00 0.00 0.00 1065.1
20260502033357 0 126 0.0 0.0 0.00 0.00 0.00 1065.0
20260502032853 0 125 0.0 0.0 0.00 0.00 0.00 1065.3
20260502032349 0 125 0.0 0.0 0.00 0.00 0.00 1065.2
20260502031847 0 125 0.0 0.0 0.00 0.00 0.00 1065.2
20260502031345 0 124 0.0 0.0 0.00 0.00 0.00 1065.1
20260502030843 0 125 0.0 0.0 0.00 0.00 0.00 1065.0
20260502030341 0 128 0.0 0.0 0.00 0.00 0.00 1065.2
20260502025838 0 128 0.0 0.0 0.00 0.00 0.00 1065.1
20260502025336 0 126 0.0 0.0 0.00 0.00 0.00 1065.2
20260502024834 0 129 0.0 0.0 0.00 0.00 0.00 1065.1
20260502024331 0 129 0.0 0.0 0.00 0.00 0.00 1065.1
20260502023829 0 132 0.0 0.0 0.00 0.00 0.00 1065.0
20260502023327 0 129 0.0 0.0 0.00 0.00 0.00 1064.9
20260502022824 0 128 0.0 0.0 0.00 0.00 0.00 1064.8
20260502022320 0 132 0.0 1.0 0.00 0.00 0.00 1065.0
20260502021817 0 132 0.0 0.0 0.00 0.00 0.00 1064.9
20260502021315 0 130 0.0 0.0 0.00 0.00 0.00 1064.7
20260502020812 0 128 0.0 0.0 0.00 0.00 0.00 1064.8
20260502020309 0 129 0.0 0.0 0.00 0.00 0.00 1064.7
20260502015806 0 128 0.0 0.0 0.00 0.00 0.00 1064.6
20260502015305 0 125 0.0 0.0 0.00 0.00 0.00 1064.7
20260502014800 0 123 0.0 0.0 0.00 0.00 0.00 1064.8
20260502014257 0 128 0.0 0.0 0.00 0.00 0.00 1064.5
20260502013753 0 128 0.0 0.0 0.00 0.00 0.00 1064.7
20260502013249 0 125 0.0 0.0 0.00 0.00 0.00 1064.5
20260502012746 0 125 0.0 0.0 0.00 0.00 0.00 1064.2
20260502012244 0 122 0.0 0.0 0.00 0.00 0.00 1064.3
20260502011741 0 124 0.0 0.0 0.00 0.00 0.00 1064.2
20260502011236 0 125 0.0 0.0 0.00 0.00 0.00 1063.8
20260502010734 0 126 0.0 0.0 0.00 0.00 0.00 1063.9
20260502010230 0 126 0.0 0.0 0.00 0.00 0.00 1063.8
20260502005728 0 124 0.0 0.0 0.00 0.00 0.00 1063.8
20260502005226 0 124 0.0 0.0 0.00 0.00 0.00 1063.6
20260502004722 0 127 0.0 1.0 0.00 0.00 0.00 1063.6
20260502004218 0 129 0.0 1.0 0.00 0.00 0.00 1063.7
20260502003716 0 149 1.0 2.0 0.00 0.00 0.00 1063.6
20260502003213 0 154 1.0 2.0 0.00 0.00 0.00 1063.5
20260502002709 0 117 1.0 2.0 0.00 0.00 0.00 1063.7